Location: Chagrin Falls Park
(41.4139°N, 81.3865°W)
Time: 00:21:55
(UTC+00:00)

STARLINK-2646 - Pass Details

Date: 31 July 2021
Orbit: 546 x 548 km, 53.1° (Epoch: 20 September)

Event Time Altitude Azimuth Distance (km) Brightness Sun altitude
Rises 01:19:30 0° 309° (NW) 2,720 9.6 -6.6°
Reaches altitude 10° 01:21:45 10° 313° (NW) 1,824 7.9 -7.0°
Maximum altitude 01:25:52 64° 35° (NE) 608 3.8 -7.6°
Enters shadow 01:29:52 11° 118° (ESE) 1,777 5.5 -8.2°
